Location: Gollag?dem
(16.8053°N, 80.8024°E)
Time: 18:15:22
(UTC+00:00)

Cosmos 1455 - Pass Details

Date: 13 August 2020
Orbit: 498 x 523 km, 82.5° (Epoch: 17 September)

Event Time Altitude Azimuth Distance (km) Brightness Sun altitude
Exits shadow 23:11:39 24° 206° (SSW) 1,097 3.4 -16.4°
Maximum altitude 23:13:44 55° 275° (W) 627 2.2 -16.0°
Drops below altitude 10° 23:17:31 10° 354° (N) 1,755 5.1 -15.1°
Sets 23:19:41 0° 359° (N) 2,645 6.1 -14.6°
